Location: Bauerbach
(50.4985°N, 10.3912°E)
Time: 20:49:06
(UTC+00:00)

GEOS 3 Rocket - Pass Details

Date: 13 January 2026
Orbit: 768 x 845 km, 115.0° (Epoch: 17 February)

Event Time Altitude Azimuth Distance (km) Brightness Sun altitude
Rises 03:41:39 0° 121° (ESE) 3,319 7.5 -33.0°
Reaches altitude 10° 03:43:57 10° 117° (ESE) 2,402 6.7 -32.7°
Enters shadow 03:48:28 55° 68° (ENE) 992 4.2 -32.0°
